Odell, IL

5:43 PM CST on January 22, 2017 (GMT -0600)
Pontiac Municipal

Weather History for KPNT - May, 2013

Change the Weather History Date:

Thursday, May 23, 2013

  Actual Average Record
Temperature  
Mean Temperature 54 °F -  
Max Temperature 62 °F 74 °F 94 °F (1921)
Min Temperature 46 °F 54 °F 34 °F (1917)
Degree Days  
Heating Degree Days 11    
Growing Degree Days 4 (Base 50)    
Moisture  
Dew Point 53 °F    
Average Humidity 85    
Maximum Humidity 94    
Minimum Humidity 72    
Precipitation  
Precipitation 0.03 in - - ()
Sea Level Pressure  
Sea Level Pressure 30.02 in    
Wind  
Wind Speed 11 mph (North)    
Max Wind Speed 21 mph    
Max Gust Speed 28 mph    
Visibility 9 miles    
Events Rain    
Averages and records for this station are not official NWS values.
T = Trace of Precipitation, MM = Missing Value Source: NWS Daily Summary

Daily Weather History Graph

Daily Weather History Graph

Search for Another Location

Airport or City:

Trip Planner

Search our weather history database for the weather conditions in past years. The results will help you decide how hot, cold, wet, or windy it might be!

Date:

Astronomy

May. 23, 2013 Rise Set
Actual Time 5:29 AM CDT 8:13 PM CDT
Civil Twilight 4:57 AM CDT 8:45 PM CDT
Nautical Twilight 4:17 AM CDT 9:25 PM CDT
Astronomical Twilight 3:32 AM CDT 10:11 PM CDT
Moon 6:44 PM CDT (5/23) 4:15 AM CDT (5/23)
Length of Visible Light 15h 47m
Length of Day
14h 43m
Waxing Gibbous, 97% of the Moon is Illuminated
May 23
Waxing Gibbous
May 24
Full
May 31
Last Quarter
Jun 8
New
Jun 16
First Quarter

Hourly Weather History & Observations

Time (CDT) Temp. Windchill Dew Point Humidity Pressure Visibility Wind Dir Wind Speed Gust Speed Precip Events Conditions
12:15 AM 62.6 °F - 57.2 °F 82% 29.79 in 10.0 mi WSW 8.1 mph - N/A   Overcast
12:35 AM 62.6 °F - 57.2 °F 82% 29.80 in 10.0 mi WSW 10.4 mph - N/A   Overcast
12:55 AM 62.6 °F - 57.2 °F 82% 29.80 in 10.0 mi WSW 9.2 mph - N/A   Overcast
1:15 AM 62.6 °F - 57.2 °F 82% 29.80 in 10.0 mi WSW 8.1 mph - N/A   Overcast
1:35 AM 62.6 °F - 57.2 °F 82% 29.79 in 10.0 mi WSW 9.2 mph - N/A   Mostly Cloudy
1:55 AM 60.8 °F - 57.2 °F 88% 29.79 in 10.0 mi West 8.1 mph - N/A   Mostly Cloudy
2:15 AM 60.8 °F - 57.2 °F 88% 29.79 in 10.0 mi West 9.2 mph - N/A   Scattered Clouds
2:35 AM 60.8 °F - 57.2 °F 88% 29.80 in 10.0 mi West 11.5 mph 16.1 mph N/A   Scattered Clouds
2:55 AM 60.8 °F - 57.2 °F 88% 29.80 in 10.0 mi West 11.5 mph - N/A   Overcast
3:15 AM 60.8 °F - 57.2 °F 88% 29.80 in 10.0 mi West 11.5 mph - N/A   Overcast
3:35 AM 60.8 °F - 57.2 °F 88% 29.80 in 10.0 mi West 10.4 mph - N/A   Overcast
3:55 AM 60.8 °F - 57.2 °F 88% 29.81 in 10.0 mi West 9.2 mph - N/A   Overcast
4:15 AM 60.8 °F - 57.2 °F 88% 29.81 in 10.0 mi West 5.8 mph - N/A Rain Rain
4:35 AM 60.8 °F - 57.2 °F 88% 29.82 in 4.0 mi West 9.2 mph - N/A Rain Rain
4:55 AM 60.8 °F - 57.2 °F 88% 29.82 in 3.0 mi West 8.1 mph - 0.01 in Rain Light Rain
5:15 AM 59.0 °F - 57.2 °F 94% 29.83 in 3.0 mi West 12.7 mph - 0.01 in   Drizzle
5:35 AM 59.0 °F - 57.2 °F 94% 29.83 in 3.0 mi WNW 10.4 mph - 0.01 in   Drizzle
5:55 AM 59.0 °F - 57.2 °F 94% 29.84 in 4.0 mi WNW 10.4 mph - 0.01 in Rain Light Rain
6:15 AM 59.0 °F - 57.2 °F 94% 29.85 in 10.0 mi WNW 10.4 mph - N/A   Overcast
6:35 AM 59.0 °F - 57.2 °F 94% 29.86 in 10.0 mi WNW 11.5 mph - N/A   Overcast
6:55 AM 60.8 °F - 57.2 °F 88% 29.87 in 10.0 mi WNW 11.5 mph - N/A   Overcast
7:15 AM 59.0 °F - 57.2 °F 94% 29.88 in 5.0 mi WNW 10.4 mph - N/A   Overcast
7:35 AM 59.0 °F - 57.2 °F 94% 29.88 in 3.0 mi WNW 9.2 mph - N/A   Overcast
7:55 AM 59.0 °F - 57.2 °F 94% 29.89 in 7.0 mi WNW 10.4 mph - N/A   Overcast
8:15 AM 59.0 °F - 57.2 °F 94% 29.90 in 7.0 mi NW 10.4 mph - N/A   Overcast
8:35 AM 59.0 °F - 57.2 °F 94% 29.91 in 1.5 mi NNE 15.0 mph - N/A Rain Rain
8:55 AM 57.2 °F - 55.4 °F 94% 29.93 in 3.0 mi NNE 10.4 mph - 0.01 in   Light Drizzle
9:15 AM 57.2 °F - 55.4 °F 94% 29.94 in 3.0 mi NNE 11.5 mph - N/A   Overcast
9:35 AM 57.2 °F - 55.4 °F 94% 29.95 in 7.0 mi North 19.6 mph 25.3 mph N/A Rain Light Rain
9:55 AM 55.4 °F - 53.6 °F 94% 29.96 in 10.0 mi North 18.4 mph - N/A Rain Light Rain
10:15 AM 55.4 °F - 53.6 °F 94% 29.98 in 10.0 mi NNE 17.3 mph - N/A   Overcast
10:35 AM 55.4 °F - 51.8 °F 88% 29.99 in 10.0 mi NNE 17.3 mph 25.3 mph N/A   Overcast
10:55 AM 55.4 °F - 51.8 °F 88% 30.00 in 10.0 mi NNE 18.4 mph - N/A   Overcast
11:15 AM 55.4 °F - 51.8 °F 88% 30.01 in 10.0 mi NNE 20.7 mph 27.6 mph N/A   Mostly Cloudy
11:35 AM 55.4 °F - 51.8 °F 88% 30.01 in 10.0 mi NNE 19.6 mph 24.2 mph N/A   Mostly Cloudy
11:55 AM 55.4 °F - 51.8 °F 88% 30.03 in 10.0 mi NNE 15.0 mph - N/A   Overcast
12:15 PM 55.4 °F - 51.8 °F 88% 30.04 in 10.0 mi North 19.6 mph 23.0 mph N/A   Overcast
12:35 PM 55.4 °F - 51.8 °F 88% 30.04 in 10.0 mi NNE 17.3 mph - N/A   Overcast
12:55 PM 55.4 °F - 51.8 °F 88% 30.04 in 10.0 mi North 16.1 mph 23.0 mph N/A   Overcast
1:15 PM 55.4 °F - 51.8 °F 88% 30.04 in 10.0 mi North 17.3 mph - N/A   Overcast
1:35 PM 57.2 °F - 51.8 °F 82% 30.06 in 10.0 mi North 15.0 mph - N/A   Overcast
1:55 PM 59.0 °F - 53.6 °F 82% 30.06 in 10.0 mi North 17.3 mph 21.9 mph N/A   Mostly Cloudy
2:15 PM 57.2 °F - 51.8 °F 82% 30.07 in 10.0 mi North 13.8 mph - N/A   Mostly Cloudy
2:35 PM 57.2 °F - 51.8 °F 82% 30.10 in 10.0 mi North 13.8 mph 19.6 mph N/A   Overcast
2:55 PM 57.2 °F - 51.8 °F 82% 30.10 in 10.0 mi North 16.1 mph - N/A   Overcast
3:15 PM 59.0 °F - 51.8 °F 77% 30.10 in 10.0 mi North 16.1 mph - N/A   Overcast
3:35 PM 57.2 °F - 51.8 °F 82% 30.11 in 10.0 mi North 13.8 mph - N/A   Overcast
3:55 PM 59.0 °F - 51.8 °F 77% 30.11 in 10.0 mi North 15.0 mph - N/A   Mostly Cloudy
4:15 PM 59.0 °F - 51.8 °F 77% 30.12 in 10.0 mi North 15.0 mph 21.9 mph N/A   Mostly Cloudy
4:35 PM 59.0 °F - 51.8 °F 77% 30.12 in 10.0 mi NNE 18.4 mph - N/A   Mostly Cloudy
4:55 PM 59.0 °F - 51.8 °F 77% 30.14 in 10.0 mi North 18.4 mph 23.0 mph N/A   Mostly Cloudy
5:15 PM 59.0 °F - 50.0 °F 72% 30.15 in 10.0 mi NNE 16.1 mph - N/A   Mostly Cloudy
5:35 PM 59.0 °F - 50.0 °F 72% 30.15 in 10.0 mi North 13.8 mph 19.6 mph N/A   Overcast
5:55 PM 57.2 °F - 50.0 °F 77% 30.16 in 10.0 mi North 15.0 mph - N/A   Overcast
6:15 PM 57.2 °F - 50.0 °F 77% 30.17 in 10.0 mi NNE 12.7 mph 17.3 mph N/A   Overcast
6:35 PM 57.2 °F - 48.2 °F 72% 30.18 in 10.0 mi North 13.8 mph - N/A   Overcast
6:55 PM 57.2 °F - 50.0 °F 77% 30.19 in 10.0 mi North 12.7 mph - N/A   Overcast
7:15 PM 57.2 °F - 50.0 °F 77% 30.20 in 10.0 mi North 12.7 mph - N/A   Overcast
7:35 PM 55.4 °F - 50.0 °F 82% 30.20 in 10.0 mi NE 13.8 mph - N/A   Scattered Clouds
7:55 PM 55.4 °F - 48.2 °F 77% 30.21 in 10.0 mi NNE 9.2 mph - N/A   Clear
8:15 PM 53.6 °F - 48.2 °F 82% 30.20 in 10.0 mi NE 8.1 mph - N/A   Clear
8:35 PM 53.6 °F - 48.2 °F 82% 30.20 in 10.0 mi NE 8.1 mph - N/A   Clear
8:55 PM 51.8 °F - 48.2 °F 88% 30.21 in 10.0 mi NE 6.9 mph - N/A   Clear
9:15 PM 51.8 °F - 46.4 °F 82% 30.22 in 10.0 mi NE 8.1 mph - N/A   Clear
9:35 PM 51.8 °F - 48.2 °F 88% 30.23 in 10.0 mi ENE 12.7 mph 16.1 mph N/A   Clear
9:55 PM 51.8 °F - 44.6 °F 76% 30.25 in 10.0 mi ENE 10.4 mph - N/A   Clear
10:15 PM 50.0 °F - 44.6 °F 82% 30.26 in 10.0 mi ENE 6.9 mph - N/A   Clear
10:35 PM 48.2 °F - 44.6 °F 87% 30.26 in 10.0 mi ENE 6.9 mph - N/A   Clear
10:55 PM 48.2 °F - 42.8 °F 82% 30.27 in 10.0 mi NE 10.4 mph - N/A   Clear
11:15 PM 46.4 °F 41.5 °F 42.8 °F 87% 30.27 in 10.0 mi NE 10.4 mph - N/A   Clear
11:35 PM 46.4 °F 41.9 °F 39.2 °F 76% 30.28 in 10.0 mi ENE 9.2 mph - N/A   Clear
11:55 PM 46.4 °F 42.9 °F 39.2 °F 76% 30.28 in 10.0 mi NE 6.9 mph - N/A   Clear